Location: Asheville, NC
(35.6000°N, 82.5500°W)
Time: 04:24:01
(UTC-05:00)

CUBEBUG 2 - Pass Details

Date: 08 January 2018
Orbit: 587 x 699 km, 97.6° (Epoch: 19 January)

Event Time Altitude Azimuth Distance (km) Brightness Sun altitude
Rises 06:23:11 0° 40° (NE) 3,040 ? -15.4°
Reaches altitude 10° 06:27:41 10° 81° (E) 2,140 ? -14.5°
Maximum altitude 06:28:30 10° 91° (E) 2,115 ? -14.3°
Drops below altitude 10° 06:29:19 10° 101° (E) 2,144 ? -14.2°
Sets 06:33:49 0° 141° (SE) 3,064 ? -13.3°
